| time (UTC) | temp C | wind direction | speed KPH | gust KPH | rain 1hr cm | rain 24hr cm | rain mn cm | humidity % | barometer mb |
| 20260508233828 | 24 | 289 | 3.2 | 12.9 | 0.00 | 0.00 | 0.00 | 27 | 1004.5 |
| 20260508233322 | 24 | 273 | 4.8 | 17.7 | 0.00 | 0.00 | 0.00 | 27 | 1004.5 |
| 20260508232820 | 24 | 273 | 8.0 | 17.7 | 0.00 | 0.00 | 0.00 | 26 | 1004.5 |
| 20260508232324 | 24 | 282 | 6.4 | 17.7 | 0.00 | 0.00 | 0.00 | 27 | 1004.6 |
| 20260508231828 | 24 | 297 | 4.8 | 17.7 | 0.00 | 0.00 | 0.00 | 27 | 1004.5 |
| 20260508231322 | 24 | 344 | 6.4 | 14.5 | 0.00 | 0.00 | 0.00 | 26 | 1004.5 |
| 20260508230828 | 24 | 325 | 4.8 | 19.3 | 0.00 | 0.00 | 0.00 | 26 | 1004.6 |
| 20260508230334 | 24 | 292 | 8.0 | 19.3 | 0.00 | 0.00 | 0.00 | 25 | 1004.6 |
| 20260508225827 | 25 | 292 | 3.2 | 17.7 | 0.00 | 0.00 | 0.00 | 25 | 1004.6 |
| 20260508225314 | 25 | 329 | 6.4 | 14.5 | 0.00 | 0.00 | 0.00 | 26 | 1004.7 |
| 20260508224820 | 25 | 312 | 4.8 | 12.9 | 0.00 | 0.00 | 0.00 | 24 | 1004.7 |
| 20260508224328 | 25 | 260 | 4.8 | 14.5 | 0.00 | 0.00 | 0.00 | 24 | 1004.7 |
| 20260508223813 | 25 | 286 | 8.0 | 14.5 | 0.00 | 0.00 | 0.00 | 24 | 1004.6 |
| 20260508223322 | 25 | 317 | 9.7 | 16.1 | 0.00 | 0.00 | 0.00 | 23 | 1004.6 |
| 20260508222827 | 25 | 268 | 8.0 | 24.1 | 0.00 | 0.00 | 0.00 | 23 | 1004.6 |
| 20260508222316 | 25 | 268 | 4.8 | 24.1 | 0.00 | 0.00 | 0.00 | 24 | 1004.6 |
| 20260508221821 | 25 | 270 | 4.8 | 12.9 | 0.00 | 0.00 | 0.00 | 23 | 1004.7 |
| 20260508221330 | 25 | 277 | 8.0 | 16.1 | 0.00 | 0.00 | 0.00 | 22 | 1004.6 |
| 20260508220816 | 25 | 277 | 8.0 | 16.1 | 0.00 | 0.00 | 0.00 | 22 | 1004.7 |
| 20260508220323 | 25 | 291 | 8.0 | 16.1 | 0.00 | 0.00 | 0.00 | 22 | 1004.9 |
| 20260508215829 | 26 | 319 | 3.2 | 12.9 | 0.00 | 0.00 | 0.00 | 24 | 1005.0 |
| 20260508215317 | 26 | 280 | 6.4 | 12.9 | 0.00 | 0.00 | 0.00 | 23 | 1005.0 |
| 20260508214822 | 26 | 322 | 3.2 | 11.3 | 0.00 | 0.00 | 0.00 | 24 | 1004.9 |
| 20260508214330 | 25 | 284 | 4.8 | 17.7 | 0.00 | 0.00 | 0.00 | 23 | 1005.0 |
| 20260508213817 | 25 | 339 | 6.4 | 19.3 | 0.00 | 0.00 | 0.00 | 25 | 1005.1 |
| 20260508213342 | 25 | 271 | 9.7 | 19.3 | 0.00 | 0.00 | 0.00 | 24 | 1005.0 |
| 20260508212825 | 25 | 330 | 3.2 | 17.7 | 0.00 | 0.00 | 0.00 | 26 | 1005.0 |
| 20260508212329 | 25 | 282 | 6.4 | 17.7 | 0.00 | 0.00 | 0.00 | 23 | 1005.2 |
| 20260508211822 | 26 | 347 | 4.8 | 17.7 | 0.00 | 0.00 | 0.00 | 25 | 1005.2 |
| 20260508211331 | 25 | 305 | 1.6 | 12.9 | 0.00 | 0.00 | 0.00 | 26 | 1005.1 |
| 20260508210817 | 25 | 288 | 6.4 | 12.9 | 0.00 | 0.00 | 0.00 | 26 | 1005.0 |
| 20260508210325 | 25 | 283 | 3.2 | 14.5 | 0.00 | 0.00 | 0.00 | 26 | 1005.2 |
| 20260508205828 | 25 | 34 | 8.0 | 16.1 | 0.00 | 0.00 | 0.00 | 25 | 1005.2 |
| 20260508205343 | 25 | 337 | 8.0 | 16.1 | 0.00 | 0.00 | 0.00 | 24 | 1005.1 |
| 20260508204825 | 26 | 271 | 4.8 | 12.9 | 0.00 | 0.00 | 0.00 | 26 | 1005.1 |
| 20260508204330 | 26 | 322 | 1.6 | 12.9 | 0.00 | 0.00 | 0.00 | 28 | 1005.2 |
| 20260508203821 | 25 | 315 | 6.4 | 12.9 | 0.00 | 0.00 | 0.00 | 28 | 1005.2 |
| 20260508203325 | 25 | 295 | 3.2 | 9.7 | 0.00 | 0.00 | 0.00 | 29 | 1005.3 |
| 20260508202814 | 25 | 347 | 1.6 | 12.9 | 0.00 | 0.00 | 0.00 | 28 | 1005.3 |
| 20260508202319 | 25 | 325 | 3.2 | 14.5 | 0.00 | 0.00 | 0.00 | 27 | 1005.4 |
| 20260508201825 | 25 | 307 | 3.2 | 12.9 | 0.00 | 0.00 | 0.00 | 29 | 1005.4 |
| 20260508201314 | 26 | 348 | 1.6 | 12.9 | 0.00 | 0.00 | 0.00 | 27 | 1005.5 |
| 20260508200820 | 26 | 286 | 3.2 | 14.5 | 0.00 | 0.00 | 0.00 | 27 | 1005.5 |
| 20260508200327 | 26 | 15 | 4.8 | 14.5 | 0.00 | 0.00 | 0.00 | 27 | 1005.5 |
| 20260508195832 | 26 | 242 | 6.4 | 12.9 | 0.00 | 0.00 | 0.00 | 26 | 1005.5 |
| 20260508195320 | 26 | 290 | 3.2 | 17.7 | 0.00 | 0.00 | 0.00 | 26 | 1005.5 |
| 20260508194828 | 25 | 297 | 4.8 | 17.7 | 0.00 | 0.00 | 0.00 | 30 | 1005.5 |
| 20260508194317 | 24 | 283 | 4.8 | 14.5 | 0.00 | 0.00 | 0.00 | 30 | 1005.6 |
| 20260508193824 | 24 | 325 | 1.6 | 6.4 | 0.00 | 0.00 | 0.00 | 33 | 1005.6 |
| 20260508193332 | 24 | 11 | 1.6 | 14.5 | 0.00 | 0.00 | 0.00 | 31 | 1005.6 |
| 20260508192819 | 25 | 355 | 4.8 | 14.5 | 0.00 | 0.00 | 0.00 | 30 | 1005.6 |
| 20260508192318 | 25 | 293 | 1.6 | 6.4 | 0.00 | 0.00 | 0.00 | 31 | 1005.6 |
| 20260508191824 | 26 | 313 | 0.0 | 9.7 | 0.00 | 0.00 | 0.00 | 30 | 1005.7 |
| 20260508191333 | 26 | 355 | 1.6 | 12.9 | 0.00 | 0.00 | 0.00 | 31 | 1005.8 |
| 20260508190819 | 25 | 349 | 4.8 | 19.3 | 0.00 | 0.00 | 0.00 | 35 | 1005.8 |
| 20260508190325 | 24 | 290 | 8.0 | 19.3 | 0.00 | 0.00 | 0.00 | 34 | 1005.9 |
| 20260508185830 | 24 | 290 | 6.4 | 17.7 | 0.00 | 0.00 | 0.00 | 35 | 1005.9 |
| 20260508185338 | 24 | 307 | 6.4 | 16.1 | 0.00 | 0.00 | 0.00 | 31 | 1005.9 |
| 20260508184814 | 24 | 304 | 8.0 | 16.1 | 0.00 | 0.00 | 0.00 | 31 | 1005.8 |
| 20260508184333 | 24 | 277 | 4.8 | 16.1 | 0.00 | 0.00 | 0.00 | 31 | 1005.9 |
| 20260508183828 | 25 | 289 | 8.0 | 16.1 | 0.00 | 0.00 | 0.00 | 30 | 1005.8 |
| 20260508183314 | 25 | 330 | 6.4 | 16.1 | 0.00 | 0.00 | 0.00 | 30 | 1005.9 |
| 20260508182820 | 25 | 321 | 1.6 | 16.1 | 0.00 | 0.00 | 0.00 | 31 | 1006.0 |
| 20260508182347 | 25 | 317 | 4.8 | 16.1 | 0.00 | 0.00 | 0.00 | 30 | 1006.0 |
| 20260508181850 | 25 | 297 | 4.8 | 16.1 | 0.00 | 0.00 | 0.00 | 32 | 1006.2 |
| 20260508181338 | 24 | 275 | 8.0 | 16.1 | 0.00 | 0.00 | 0.00 | 28 | 1006.3 |
| 20260508180838 | 24 | 273 | 8.0 | 19.3 | 0.00 | 0.00 | 0.00 | 30 | 1006.3 |
| 20260508180343 | 25 | 294 | 4.8 | 19.3 | 0.00 | 0.00 | 0.00 | 31 | 1006.4 |
| 20260508175849 | 25 | 299 | 11.3 | 19.3 | 0.00 | 0.00 | 0.00 | 29 | 1006.5 |
| 20260508175337 | 25 | 346 | 3.2 | 12.9 | 0.00 | 0.00 | 0.00 | 30 | 1006.4 |
| 20260508174855 | 25 | 266 | 8.0 | 12.9 | 0.00 | 0.00 | 0.00 | 28 | 1006.5 |
| 20260508174403 | 25 | 345 | 3.2 | 14.5 | 0.00 | 0.00 | 0.00 | 30 | 1006.5 |
| 20260508173818 | 25 | 323 | 4.8 | 14.5 | 0.00 | 0.00 | 0.00 | 31 | 1006.6 |
| 20260508173316 | 25 | 264 | 1.6 | 9.7 | 0.00 | 0.00 | 0.00 | 31 | 1006.6 |
| 20260508172819 | 25 | 264 | 4.8 | 16.1 | 0.00 | 0.00 | 0.00 | 30 | 1006.8 |
| 20260508172327 | 24 | 237 | 3.2 | 16.1 | 0.00 | 0.00 | 0.00 | 32 | 1006.8 |
| 20260508171824 | 24 | 296 | 3.2 | 11.3 | 0.00 | 0.00 | 0.00 | 30 | 1006.8 |
| 20260508171313 | 25 | 290 | 4.8 | 11.3 | 0.00 | 0.00 | 0.00 | 28 | 1006.9 |
| 20260508170820 | 24 | 266 | 4.8 | 8.0 | 0.00 | 0.00 | 0.00 | 30 | 1006.9 |
| 20260508170327 | 24 | 281 | 3.2 | 12.9 | 0.00 | 0.00 | 0.00 | 32 | 1006.9 |
| 20260508165814 | 23 | 306 | 4.8 | 12.9 | 0.00 | 0.00 | 0.00 | 30 | 1007.0 |
| 20260508165322 | 23 | 263 | 3.2 | 14.5 | 0.00 | 0.00 | 0.00 | 32 | 1007.0 |
| 20260508164829 | 23 | 289 | 6.4 | 14.5 | 0.00 | 0.00 | 0.00 | 31 | 1007.0 |
| 20260508164318 | 23 | 296 | 6.4 | 12.9 | 0.00 | 0.00 | 0.00 | 32 | 1007.2 |
| 20260508163824 | 23 | 295 | 4.8 | 8.0 | 0.00 | 0.00 | 0.00 | 32 | 1007.2 |
| 20260508163314 | 23 | 299 | 4.8 | 12.9 | 0.00 | 0.00 | 0.00 | 32 | 1007.2 |
| 20260508162852 | 22 | 306 | 6.4 | 12.9 | 0.00 | 0.00 | 0.00 | 31 | 1007.3 |
| 20260508162320 | 22 | 286 | 6.4 | 12.9 | 0.00 | 0.00 | 0.00 | 32 | 1007.2 |
| 20260508161821 | 22 | 277 | 3.2 | 12.9 | 0.00 | 0.00 | 0.00 | 33 | 1007.3 |
| 20260508161324 | 22 | 253 | 4.8 | 12.9 | 0.00 | 0.00 | 0.00 | 32 | 1007.4 |
| 20260508160810 | 22 | 276 | 6.4 | 12.9 | 0.00 | 0.00 | 0.00 | 32 | 1007.5 |
| 20260508160331 | 22 | 263 | 4.8 | 12.9 | 0.00 | 0.00 | 0.00 | 33 | 1007.5 |
| 20260508155817 | 22 | 294 | 6.4 | 12.9 | 0.00 | 0.00 | 0.00 | 32 | 1007.5 |
| 20260508155325 | 22 | 275 | 4.8 | 12.9 | 0.00 | 0.00 | 0.00 | 32 | 1007.5 |
| 20260508154812 | 22 | 285 | 4.8 | 11.3 | 0.00 | 0.00 | 0.00 | 34 | 1007.5 |
| 20260508154321 | 22 | 286 | 4.8 | 11.3 | 0.00 | 0.00 | 0.00 | 35 | 1007.5 |
| 20260508153828 | 22 | 291 | 4.8 | 11.3 | 0.00 | 0.00 | 0.00 | 33 | 1007.5 |
| 20260508153316 | 22 | 286 | 4.8 | 8.0 | 0.00 | 0.00 | 0.00 | 33 | 1007.5 |
| 20260508152823 | 22 | 300 | 4.8 | 8.0 | 0.00 | 0.00 | 0.00 | 34 | 1007.5 |
| 20260508152330 | 22 | 296 | 3.2 | 6.4 | 0.00 | 0.00 | 0.00 | 37 | 1007.6 |
| 20260508151825 | 22 | 287 | 1.6 | 6.4 | 0.00 | 0.00 | 0.00 | 36 | 1007.6 |
| 20260508151336 | 21 | 282 | 3.2 | 6.4 | 0.00 | 0.00 | 0.00 | 34 | 1007.6 |
| 20260508150814 | 21 | 262 | 3.2 | 4.8 | 0.00 | 0.00 | 0.00 | 36 | 1007.7 |
| 20260508150322 | 21 | 279 | 3.2 | 4.8 | 0.00 | 0.00 | 0.00 | 37 | 1007.7 |
| 20260508145818 | 21 | 243 | 0.0 | 4.8 | 0.00 | 0.00 | 0.00 | 38 | 1007.7 |
| 20260508145345 | 20 | 286 | 1.6 | 3.2 | 0.00 | 0.00 | 0.00 | 38 | 1007.8 |
| 20260508144842 | 20 | 273 | 0.0 | 3.2 | 0.00 | 0.00 | 0.00 | 42 | 1007.9 |
| 20260508144318 | 19 | 287 | 0.0 | 6.4 | 0.00 | 0.00 | 0.00 | 40 | 1007.9 |
| 20260508143825 | 19 | 281 | 3.2 | 6.4 | 0.00 | 0.00 | 0.00 | 39 | 1008.0 |
| 20260508143333 | 18 | 263 | 1.6 | 6.4 | 0.00 | 0.00 | 0.00 | 43 | 1008.0 |
| 20260508142829 | 18 | 290 | 1.6 | 6.4 | 0.00 | 0.00 | 0.00 | 45 | 1007.9 |
| 20260508142317 | 17 | 186 | 3.2 | 6.4 | 0.00 | 0.00 | 0.00 | 43 | 1007.9 |
| 20260508141823 | 17 | 232 | 1.6 | 6.4 | 0.00 | 0.00 | 0.00 | 47 | 1008.0 |
| 20260508141313 | 16 | 238 | 3.2 | 6.4 | 0.00 | 0.00 | 0.00 | 46 | 1008.1 |
| 20260508140819 | 16 | 223 | 0.0 | 0.0 | 0.00 | 0.00 | 0.00 | 52 | 1008.1 |
| 20260508140328 | 16 | 318 | 0.0 | 0.0 | 0.00 | 0.00 | 0.00 | 52 | 1008.2 |
| 20260508135815 | 15 | 254 | 0.0 | 0.0 | 0.00 | 0.00 | 0.00 | 54 | 1008.1 |
| 20260508135324 | 15 | 254 | 0.0 | 0.0 | 0.00 | 0.00 | 0.00 | 52 | 1008.1 |
| 20260508134830 | 15 | 251 | 0.0 | 0.0 | 0.00 | 0.00 | 0.00 | 53 | 1008.1 |
| 20260508134318 | 15 | 232 | 0.0 | 0.0 | 0.00 | 0.00 | 0.00 | 53 | 1008.1 |
| 20260508133823 | 14 | 273 | 0.0 | 0.0 | 0.00 | 0.00 | 0.00 | 58 | 1008.1 |
| 20260508133314 | 14 | 273 | 0.0 | 0.0 | 0.00 | 0.00 | 0.00 | 62 | 1008.0 |
| 20260508132818 | 13 | 273 | 0.0 | 0.0 | 0.00 | 0.00 | 0.00 | 64 | 1008.0 |
| 20260508132344 | 13 | 273 | 0.0 | 0.0 | 0.00 | 0.00 | 0.00 | 63 | 1007.9 |
| 20260508131840 | 13 | 273 | 0.0 | 0.0 | 0.00 | 0.00 | 0.00 | 65 | 1007.9 |
| 20260508131326 | 13 | 273 | 0.0 | 0.0 | 0.00 | 0.00 | 0.00 | 64 | 1008.0 |
| 20260508130825 | 12 | 273 | 0.0 | 3.2 | 0.00 | 0.00 | 0.00 | 65 | 1007.9 |
| 20260508130332 | 12 | 273 | 0.0 | 3.2 | 0.00 | 0.00 | 0.00 | 67 | 1007.9 |
| 20260508125816 | 12 | 273 | 0.0 | 4.8 | 0.00 | 0.00 | 0.00 | 67 | 1008.0 |
| 20260508125324 | 12 | 267 | 0.0 | 4.8 | 0.00 | 0.00 | 0.00 | 69 | 1008.0 |
| 20260508124811 | 11 | 342 | 0.0 | 0.0 | 0.00 | 0.00 | 0.00 | 72 | 1008.0 |
| 20260508124319 | 11 | 342 | 0.0 | 1.6 | 0.00 | 0.00 | 0.00 | 73 | 1007.9 |
| 20260508123825 | 11 | 342 | 0.0 | 4.8 | 0.00 | 0.00 | 0.00 | 74 | 1007.8 |
| 20260508123315 | 10 | 284 | 1.6 | 4.8 | 0.00 | 0.00 | 0.00 | 73 | 1007.8 |
| 20260508122821 | 10 | 274 | 0.0 | 3.2 | 0.00 | 0.00 | 0.00 | 74 | 1007.6 |
| 20260508122331 | 10 | 305 | 0.0 | 0.0 | 0.00 | 0.00 | 0.00 | 75 | 1007.5 |
| 20260508121817 | 10 | 305 | 0.0 | 0.0 | 0.00 | 0.00 | 0.00 | 72 | 1007.5 |
| 20260508121327 | 10 | 305 | 0.0 | 0.0 | 0.00 | 0.00 | 0.00 | 72 | 1007.4 |
| 20260508120813 | 10 | 305 | 0.0 | 0.0 | 0.00 | 0.00 | 0.00 | 71 | 1007.3 |
| 20260508120320 | 10 | 305 | 0.0 | 0.0 | 0.00 | 0.00 | 0.00 | 70 | 1007.3 |
| 20260508115826 | 10 | 305 | 0.0 | 0.0 | 0.00 | 0.00 | 0.00 | 70 | 1007.3 |
| 20260508115317 | 10 | 305 | 0.0 | 0.0 | 0.00 | 0.00 | 0.00 | 70 | 1007.2 |
| 20260508114823 | 10 | 305 | 0.0 | 0.0 | 0.00 | 0.00 | 0.00 | 68 | 1007.1 |
| 20260508114331 | 10 | 305 | 0.0 | 0.0 | 0.00 | 0.00 | 0.00 | 68 | 1007.1 |
| 20260508113816 | 10 | 305 | 0.0 | 0.0 | 0.00 | 0.00 | 0.00 | 68 | 1007.2 |
| 20260508113325 | 10 | 305 | 0.0 | 0.0 | 0.00 | 0.00 | 0.00 | 69 | 1007.2 |
| 20260508112812 | 10 | 305 | 0.0 | 0.0 | 0.00 | 0.00 | 0.00 | 68 | 1007.3 |
| 20260508112321 | 10 | 305 | 0.0 | 0.0 | 0.00 | 0.00 | 0.00 | 67 | 1007.1 |
| 20260508111823 | 10 | 305 | 0.0 | 0.0 | 0.00 | 0.00 | 0.00 | 66 | 1007.1 |
| 20260508111312 | 11 | 305 | 0.0 | 0.0 | 0.00 | 0.00 | 0.00 | 64 | 1007.0 |
| 20260508110818 | 11 | 305 | 0.0 | 0.0 | 0.00 | 0.00 | 0.00 | 65 | 1007.0 |
| 20260508110326 | 11 | 305 | 0.0 | 0.0 | 0.00 | 0.00 | 0.00 | 63 | 1007.1 |
| 20260508105812 | 11 | 305 | 0.0 | 0.0 | 0.00 | 0.00 | 0.00 | 64 | 1007.1 |
| 20260508105314 | 11 | 191 | 0.0 | 4.8 | 0.00 | 0.00 | 0.00 | 61 | 1007.1 |
| 20260508104820 | 11 | 191 | 0.0 | 4.8 | 0.00 | 0.00 | 0.00 | 59 | 1007.0 |
| 20260508104326 | 12 | 180 | 3.2 | 4.8 | 0.00 | 0.00 | 0.00 | 62 | 1006.9 |
| 20260508103816 | 12 | 169 | 0.0 | 3.2 | 0.00 | 0.00 | 0.00 | 60 | 1007.0 |
| 20260508103320 | 12 | 176 | 0.0 | 6.4 | 0.00 | 0.00 | 0.00 | 58 | 1007.1 |
| 20260508102811 | 12 | 161 | 1.6 | 8.0 | 0.00 | 0.00 | 0.00 | 57 | 1007.1 |
| 20260508102316 | 12 | 155 | 6.4 | 8.0 | 0.00 | 0.00 | 0.00 | 55 | 1007.2 |
| 20260508101823 | 12 | 126 | 0.0 | 3.2 | 0.00 | 0.00 | 0.00 | 54 | 1007.4 |
| 20260508101332 | 12 | 155 | 0.0 | 3.2 | 0.00 | 0.00 | 0.00 | 52 | 1007.6 |
| 20260508100816 | 12 | 9 | 0.0 | 4.8 | 0.00 | 0.00 | 0.00 | 54 | 1007.6 |
| 20260508100323 | 12 | 9 | 1.6 | 11.3 | 0.00 | 0.00 | 0.00 | 53 | 1007.5 |
| 20260508095830 | 12 | 24 | 1.6 | 12.9 | 0.00 | 0.00 | 0.00 | 52 | 1007.3 |
| 20260508095319 | 12 | 158 | 4.8 | 12.9 | 0.00 | 0.00 | 0.00 | 52 | 1007.1 |
| 20260508094826 | 12 | 126 | 6.4 | 12.9 | 0.00 | 0.00 | 0.00 | 53 | 1007.1 |
| 20260508094314 | 12 | 206 | 6.4 | 12.9 | 0.00 | 0.00 | 0.00 | 54 | 1007.2 |
| 20260508093819 | 11 | 177 | 8.0 | 9.7 | 0.00 | 0.00 | 0.00 | 55 | 1007.3 |
| 20260508093328 | 11 | 163 | 6.4 | 9.7 | 0.00 | 0.00 | 0.00 | 57 | 1007.5 |
| 20260508092815 | 11 | 195 | 4.8 | 6.4 | 0.00 | 0.00 | 0.00 | 60 | 1007.8 |
| 20260508092340 | 11 | 142 | 4.8 | 8.0 | 0.00 | 0.00 | 0.00 | 61 | 1007.8 |
| 20260508091822 | 11 | 180 | 3.2 | 4.8 | 0.00 | 0.00 | 0.00 | 62 | 1008.0 |
| 20260508091338 | 11 | 296 | 0.0 | 0.0 | 0.00 | 0.00 | 0.00 | 58 | 1008.3 |
| 20260508090837 | 11 | 296 | 0.0 | 1.6 | 0.00 | 0.00 | 0.00 | 57 | 1008.3 |
| 20260508090339 | 11 | 296 | 0.0 | 3.2 | 0.00 | 0.00 | 0.00 | 59 | 1008.6 |
| 20260508085844 | 11 | 296 | 0.0 | 3.2 | 0.00 | 0.00 | 0.00 | 59 | 1008.4 |
| 20260508085351 | 11 | 342 | 0.0 | 0.0 | 0.00 | 0.00 | 0.00 | 54 | 1008.0 |
| 20260508084855 | 11 | 9 | 0.0 | 0.0 | 0.00 | 0.00 | 0.00 | 56 | 1007.8 |
| 20260508084355 | 11 | 9 | 0.0 | 0.0 | 0.00 | 0.00 | 0.00 | 61 | 1007.9 |
| 20260508083835 | 11 | 360 | 0.0 | 3.2 | 0.00 | 0.00 | 0.00 | 63 | 1007.8 |
| 20260508083400 | 11 | 9 | 0.0 | 3.2 | 0.00 | 0.00 | 0.00 | 60 | 1007.9 |
| 20260508082836 | 11 | 288 | 0.0 | 0.0 | 0.00 | 0.00 | 0.00 | 60 | 1008.1 |
| 20260508082343 | 11 | 288 | 0.0 | 0.0 | 0.00 | 0.00 | 0.00 | 61 | 1008.1 |
| 20260508081847 | 11 | 288 | 0.0 | 0.0 | 0.00 | 0.00 | 0.00 | 63 | 1008.1 |
| 20260508081339 | 11 | 288 | 0.0 | 0.0 | 0.00 | 0.00 | 0.00 | 65 | 1007.9 |
| 20260508080841 | 11 | 288 | 0.0 | 0.0 | 0.00 | 0.00 | 0.00 | 64 | 1007.8 |
| 20260508080347 | 11 | 288 | 0.0 | 0.0 | 0.00 | 0.00 | 0.00 | 63 | 1007.7 |
| 20260508075832 | 11 | 288 | 0.0 | 0.0 | 0.00 | 0.00 | 0.00 | 62 | 1007.7 |
| 20260508075339 | 11 | 288 | 0.0 | 0.0 | 0.00 | 0.00 | 0.00 | 62 | 1007.8 |
| 20260508074823 | 11 | 288 | 0.0 | 0.0 | 0.00 | 0.00 | 0.00 | 62 | 1007.9 |
| 20260508074313 | 11 | 288 | 0.0 | 0.0 | 0.00 | 0.00 | 0.00 | 62 | 1007.9 |
| 20260508073819 | 11 | 288 | 0.0 | 0.0 | 0.00 | 0.00 | 0.00 | 62 | 1008.0 |
| 20260508073327 | 11 | 288 | 0.0 | 0.0 | 0.00 | 0.00 | 0.00 | 62 | 1008.0 |
| 20260508072813 | 11 | 288 | 0.0 | 0.0 | 0.00 | 0.00 | 0.00 | 61 | 1008.1 |
| 20260508072321 | 11 | 288 | 0.0 | 0.0 | 0.00 | 0.00 | 0.00 | 61 | 1008.2 |
| 20260508071832 | 11 | 288 | 0.0 | 0.0 | 0.00 | 0.00 | 0.00 | 60 | 1008.3 |
| 20260508071324 | 11 | 288 | 0.0 | 0.0 | 0.00 | 0.00 | 0.00 | 59 | 1008.3 |
| 20260508070818 | 11 | 288 | 0.0 | 0.0 | 0.00 | 0.00 | 0.00 | 59 | 1008.3 |
| 20260508070324 | 11 | 288 | 0.0 | 0.0 | 0.00 | 0.00 | 0.00 | 60 | 1008.4 |
| 20260508065830 | 11 | 288 | 0.0 | 0.0 | 0.00 | 0.00 | 0.00 | 59 | 1008.5 |
| 20260508065318 | 12 | 288 | 0.0 | 0.0 | 0.00 | 0.00 | 0.00 | 58 | 1008.4 |
| 20260508064825 | 12 | 288 | 0.0 | 0.0 | 0.00 | 0.00 | 0.00 | 57 | 1008.4 |
| 20260508064313 | 12 | 288 | 0.0 | 0.0 | 0.00 | 0.00 | 0.00 | 56 | 1008.3 |
| 20260508063820 | 12 | 288 | 0.0 | 0.0 | 0.00 | 0.00 | 0.00 | 58 | 1008.3 |
| 20260508063330 | 12 | 288 | 0.0 | 0.0 | 0.00 | 0.00 | 0.00 | 53 | 1008.3 |
| 20260508062817 | 12 | 288 | 0.0 | 0.0 | 0.00 | 0.00 | 0.00 | 50 | 1008.3 |
| 20260508062326 | 12 | 288 | 0.0 | 0.0 | 0.00 | 0.00 | 0.00 | 50 | 1008.3 |
| 20260508061813 | 12 | 288 | 0.0 | 0.0 | 0.00 | 0.00 | 0.00 | 48 | 1008.3 |
| 20260508061323 | 12 | 288 | 0.0 | 0.0 | 0.00 | 0.00 | 0.00 | 47 | 1008.2 |
| 20260508060829 | 12 | 288 | 0.0 | 0.0 | 0.00 | 0.00 | 0.00 | 47 | 1008.2 |
| 20260508060316 | 12 | 288 | 0.0 | 0.0 | 0.00 | 0.00 | 0.00 | 47 | 1008.2 |
| 20260508055823 | 12 | 288 | 0.0 | 0.0 | 0.00 | 0.00 | 0.00 | 48 | 1008.2 |
| 20260508055332 | 12 | 288 | 0.0 | 0.0 | 0.00 | 0.00 | 0.00 | 48 | 1008.2 |
| 20260508054819 | 12 | 288 | 0.0 | 0.0 | 0.00 | 0.00 | 0.00 | 50 | 1008.2 |
| 20260508054328 | 12 | 288 | 0.0 | 0.0 | 0.00 | 0.00 | 0.00 | 50 | 1008.1 |
| 20260508053814 | 12 | 288 | 0.0 | 0.0 | 0.00 | 0.00 | 0.00 | 46 | 1008.0 |
| 20260508053313 | 13 | 288 | 0.0 | 0.0 | 0.00 | 0.00 | 0.00 | 43 | 1007.9 |
| 20260508052815 | 13 | 288 | 0.0 | 0.0 | 0.00 | 0.00 | 0.00 | 45 | 1007.8 |
| 20260508052317 | 13 | 288 | 0.0 | 0.0 | 0.00 | 0.00 | 0.00 | 43 | 1007.8 |
| 20260508051824 | 13 | 288 | 0.0 | 0.0 | 0.00 | 0.00 | 0.00 | 45 | 1007.9 |
| 20260508051327 | 13 | 288 | 0.0 | 0.0 | 0.00 | 0.00 | 0.00 | 45 | 1007.9 |
| 20260508050813 | 13 | 346 | 0.0 | 0.0 | 0.00 | 0.00 | 0.00 | 47 | 1007.8 |
| 20260508050319 | 13 | 346 | 0.0 | 0.0 | 0.00 | 0.00 | 0.00 | 46 | 1007.8 |
| 20260508045825 | 13 | 346 | 0.0 | 0.0 | 0.00 | 0.00 | 0.00 | 46 | 1007.9 |
| 20260508045313 | 13 | 346 | 0.0 | 0.0 | 0.00 | 0.00 | 0.00 | 46 | 1007.9 |
| 20260508044820 | 13 | 346 | 0.0 | 0.0 | 0.00 | 0.00 | 0.00 | 45 | 1007.8 |
| 20260508044325 | 13 | 346 | 0.0 | 4.8 | 0.00 | 0.00 | 0.00 | 46 | 1007.8 |
| 20260508043816 | 13 | 346 | 0.0 | 4.8 | 0.00 | 0.00 | 0.00 | 44 | 1007.7 |
| 20260508043321 | 13 | 250 | 0.0 | 0.0 | 0.00 | 0.00 | 0.00 | 43 | 1007.7 |
| 20260508042848 | 13 | 250 | 0.0 | 0.0 | 0.00 | 0.00 | 0.00 | 45 | 1007.8 |
| 20260508042316 | 13 | 250 | 0.0 | 0.0 | 0.00 | 0.00 | 0.00 | 43 | 1007.8 |
| 20260508041823 | 13 | 250 | 0.0 | 0.0 | 0.00 | 0.00 | 0.00 | 42 | 1007.7 |
| 20260508041330 | 13 | 250 | 0.0 | 0.0 | 0.00 | 0.00 | 0.00 | 42 | 1007.7 |
| 20260508040816 | 13 | 250 | 0.0 | 0.0 | 0.00 | 0.00 | 0.00 | 42 | 1007.8 |
| 20260508040321 | 13 | 250 | 0.0 | 0.0 | 0.00 | 0.00 | 0.00 | 43 | 1007.8 |
| 20260508035826 | 13 | 250 | 0.0 | 0.0 | 0.00 | 0.00 | 0.00 | 44 | 1007.7 |
| 20260508035315 | 13 | 250 | 0.0 | 0.0 | 0.00 | 0.00 | 0.00 | 41 | 1007.8 |
| 20260508034817 | 14 | 250 | 0.0 | 1.6 | 0.00 | 0.00 | 0.00 | 42 | 1007.8 |
| 20260508034323 | 14 | 250 | 0.0 | 4.8 | 0.00 | 0.00 | 0.00 | 42 | 1007.8 |
| 20260508033826 | 14 | 250 | 0.0 | 4.8 | 0.00 | 0.00 | 0.00 | 41 | 1007.8 |
| 20260508033324 | 15 | 220 | 1.6 | 3.2 | 0.00 | 0.00 | 0.00 | 42 | 1007.7 |
| 20260508032829 | 15 | 175 | 0.0 | 0.0 | 0.00 | 0.00 | 0.00 | 38 | 1007.7 |
| 20260508032318 | 15 | 178 | 0.0 | 0.0 | 0.00 | 0.00 | 0.00 | 40 | 1007.5 |
| 20260508031812 | 15 | 178 | 0.0 | 0.0 | 0.00 | 0.00 | 0.00 | 41 | 1007.6 |
| 20260508031321 | 14 | 24 | 0.0 | 0.0 | 0.00 | 0.00 | 0.00 | 40 | 1007.6 |
| 20260508030825 | 14 | 24 | 0.0 | 1.6 | 0.00 | 0.00 | 0.00 | 39 | 1007.6 |
| 20260508030332 | 14 | 22 | 0.0 | 4.8 | 0.00 | 0.00 | 0.00 | 41 | 1007.6 |
| 20260508025818 | 14 | 179 | 0.0 | 4.8 | 0.00 | 0.00 | 0.00 | 44 | 1007.7 |
| 20260508025327 | 14 | 179 | 1.6 | 3.2 | 0.00 | 0.00 | 0.00 | 43 | 1007.6 |
| 20260508024832 | 14 | 178 | 0.0 | 0.0 | 0.00 | 0.00 | 0.00 | 44 | 1007.6 |
| 20260508024320 | 15 | 177 | 0.0 | 0.0 | 0.00 | 0.00 | 0.00 | 41 | 1007.6 |
| 20260508023827 | 15 | 177 | 0.0 | 0.0 | 0.00 | 0.00 | 0.00 | 42 | 1007.6 |
| 20260508023334 | 15 | 178 | 0.0 | 0.0 | 0.00 | 0.00 | 0.00 | 42 | 1007.5 |
| 20260508022819 | 15 | 177 | 0.0 | 0.0 | 0.00 | 0.00 | 0.00 | 39 | 1007.5 |
| 20260508022335 | 15 | 178 | 0.0 | 3.2 | 0.00 | 0.00 | 0.00 | 39 | 1007.5 |
| 20260508021840 | 15 | 177 | 0.0 | 3.2 | 0.00 | 0.00 | 0.00 | 41 | 1007.3 |
| 20260508021407 | 15 | 80 | 0.0 | 0.0 | 0.00 | 0.00 | 0.00 | 37 | 1007.3 |
| 20260508020838 | 15 | 43 | 0.0 | 0.0 | 0.00 | 0.00 | 0.00 | 36 | 1007.1 |
| 20260508020347 | 15 | 43 | 0.0 | 0.0 | 0.00 | 0.00 | 0.00 | 35 | 1007.1 |
| 20260508015852 | 15 | 43 | 0.0 | 0.0 | 0.00 | 0.00 | 0.00 | 35 | 1007.0 |
| 20260508015340 | 15 | 43 | 0.0 | 0.0 | 0.00 | 0.00 | 0.00 | 36 | 1006.9 |
| 20260508014845 | 15 | 43 | 0.0 | 0.0 | 0.00 | 0.00 | 0.00 | 35 | 1006.9 |
| 20260508014356 | 16 | 43 | 0.0 | 0.0 | 0.00 | 0.00 | 0.00 | 35 | 1007.0 |
| 20260508013843 | 16 | 43 | 0.0 | 0.0 | 0.00 | 0.00 | 0.00 | 34 | 1007.0 |
| 20260508013350 | 16 | 43 | 0.0 | 3.2 | 0.00 | 0.00 | 0.00 | 34 | 1006.9 |
| 20260508012836 | 16 | 43 | 0.0 | 3.2 | 0.00 | 0.00 | 0.00 | 34 | 1006.9 |
| 20260508012325 | 16 | 355 | 0.0 | 3.2 | 0.00 | 0.00 | 0.00 | 34 | 1006.8 |
| 20260508011829 | 17 | 344 | 1.6 | 3.2 | 0.00 | 0.00 | 0.00 | 32 | 1006.7 |
| 20260508011318 | 17 | 13 | 0.0 | 3.2 | 0.00 | 0.00 | 0.00 | 32 | 1006.7 |
| 20260508010825 | 17 | 9 | 0.0 | 0.0 | 0.00 | 0.00 | 0.00 | 32 | 1006.7 |
| 20260508010316 | 17 | 9 | 0.0 | 3.2 | 0.00 | 0.00 | 0.00 | 32 | 1006.7 |
| 20260508005830 | 18 | 19 | 0.0 | 3.2 | 0.00 | 0.00 | 0.00 | 31 | 1006.7 |
| 20260508005321 | 18 | 35 | 0.0 | 3.2 | 0.00 | 0.00 | 0.00 | 30 | 1006.8 |
| 20260508004824 | 18 | 336 | 0.0 | 3.2 | 0.00 | 0.00 | 0.00 | 31 | 1006.8 |
| 20260508004320 | 18 | 355 | 0.0 | 1.6 | 0.00 | 0.00 | 0.00 | 29 | 1006.8 |
| 20260508003826 | 18 | 355 | 0.0 | 1.6 | 0.00 | 0.00 | 0.00 | 28 | 1006.8 |
| 20260508003315 | 19 | 11 | 0.0 | 3.2 | 0.00 | 0.00 | 0.00 | 28 | 1006.8 |
| 20260508002822 | 19 | 11 | 1.6 | 3.2 | 0.00 | 0.00 | 0.00 | 27 | 1006.7 |
| 20260508002350 | 19 | 355 | 0.0 | 4.8 | 0.00 | 0.00 | 0.00 | 27 | 1006.7 |
| 20260508001825 | 20 | 17 | 3.2 | 4.8 | 0.00 | 0.00 | 0.00 | 26 | 1006.8 |
| 20260508001331 | 20 | 355 | 1.6 | 4.8 | 0.00 | 0.00 | 0.00 | 26 | 1006.7 |
| 20260508000816 | 20 | 15 | 0.0 | 4.8 | 0.00 | 0.00 | 0.00 | 28 | 1006.8 |
| 20260508000334 | 20 | 38 | 1.6 | 4.8 | 0.00 | 0.00 | 0.00 | 26 | 1006.8 |
| 20260507235821 | 20 | 360 | 1.6 | 6.4 | 0.00 | 0.00 | 0.00 | 26 | 1006.8 |
| 20260507235323 | 20 | 46 | 0.0 | 6.4 | 0.00 | 0.00 | 0.00 | 25 | 1006.8 |
| 20260507234825 | 20 | 28 | 1.6 | 3.2 | 0.00 | 0.00 | 0.00 | 26 | 1006.8 |
| 20260507234315 | 20 | 13 | 0.0 | 8.0 | 0.00 | 0.00 | 0.00 | 25 | 1006.9 |